CZ-6A DEB, 54547

Orbit data source: Space-Track

CZ-6A DEB, 54547 is space debris in SSO originally from a launch on Fri, 11 Nov 2022 UTC launched from the Taiyaun Space Center, China (TSC). Debris objects in space refer to the collection of defunct objects orbiting the Earth. Examples of debris include non-operational satellites, rocket bodies, and fragments generated from explosions, collisions, or faulty payload assembly.

Loading next visibility...
Identifier
54547, 2022-151KX
Orbit
SSO
Country
Flag of CNCN / PRC
Related business
Manufacturer
SAST
Mission
Spacecraft
Bus & Motor
Unknown
Mass
Unknown
Launch date (UTC)
2022-11-11 (3 years ago)
Launch vehicle
Unknown
Launch site
Taiyaun Space Center, China (TSC)
Object type
Payload
Rocket body
Debris
Shape & HBR
Unknown shape, 1.1 m
Radar Cross Section
Small (<0.1 m²)

Expand to show TLE details & history
Last TLE update: 1 day ago

TLE from 1 day ago
0 CZ-6A DEB
1 54547U 22151KX  25354.49106413  .00004176  00000-0  17012-2 0  9994
2 54547  98.8083 359.9608 0089959 144.0721 216.6552 14.25784416160132
Epoch: 2025-12-20T11:47Z
TLE epoch observation values (Epoch: 2025-12-20T11:47:07.940Z)
Latitude
-0.00009°
Longitude
93.86062°
Altitude
860.838 km
Speed
7.395 km/s
True Right ascension
23h 59m 50s
True Declination
0° 00' 00"
Sunlit
Object was in daylight at epoch
Visualization orbit readout
Latitude
Unknown
Longitude
Unknown
Altitude
Unknown
Speed
Unknown
Apparent Right ascension
Unknown
Apparent Declination
Unknown
Sunlit
N/A
Visualization observer readout
Local Sidereal Time
10:40:36
Azimuth
Unknown
Elevation
Unknown
Doppler factor
Unknown
Orbital elements
Apogee altitude
867.613 km
Perigee altitude
738.411 km
Semi-major axis
7,181.149 km
Eccentricity
0.009
Inclination
98.8083°
RAAN
359.9608°
Arg. of periapsis
144.0721°
True anomaly
216.0453°
Mean anomaly
216.6552°
Eccentric anomaly
216.3497°
Mean motion
3.56658 °/min
Orbital period
100.94 mins
BSTAR
0.0017012
Loading maneuver chart data...
Computing Atmospheric mass density...
Loading historical data...
Loading historical data...
Loading historical data...
Loading historical data...
Loading historical data...
Loading historical data...
Loading historical data...

Documentation

Showing up to 5 results
|